(2018 LS5) |
Classification: Apollo [NEO] SPK-ID: 3825237 |
[ hide orbit diagram ]
For accurate long-term ephemerides, please instead use our Horizons system.This orbit viewer was implemented using two-body methods, and hence should not be used for determining accurate long-term trajectories (over several years or decades) or planetary encounter circumstances.
Orbital Elements at Epoch 2458293.5 (2018-Jun-24.0) TDB
Reference: JPL 7 (heliocentric ecliptic J2000)
Element | Value | Uncertainty (1-sigma) | Units |
e | .5854643550348605 | 0.00095125 | |
a | 2.420254164769402 | 0.0055244 | au |
q | 1.003281621172249 | 1.2178e-05 | au |
i | .1910031627148306 | 0.00021905 | deg |
node | 81.75188743417685 | 0.0027675 | deg |
peri | 210.4123812067715 | 0.0048458 | deg |
M | 355.9383138971926 | 0.014998 | deg |
tp | 2458309.016499340837 (2018-Jul-09.51649934) | 0.0041688 | TDB |
period | 1375.276085180584 3.77 | 4.7088 0.01289 | d yr |
n | .26176562210251 | 0.00089625 | deg/d |
Q | 3.837226708366555 | 0.0087588 | au |
|
| | Orbit Determination Parameters
Additional Information
|
[ hide covariance matrix ]
Orbit Covariance (6×6)
|
|
e |
q |
tp |
node |
peri |
i |
e |
9.048675793800528E-7 |
-1.158378841205038E-8 |
-3.965279640573456E-6 |
-2.588142069923042E-6 |
4.583830851946088E-6 |
2.082436719233576E-7 |
q |
-1.158378841205038E-8 |
1.483088122701405E-10 |
5.075609569625162E-8 |
3.313395409323915E-8 |
-5.868939827915579E-8 |
-2.665785054322924E-9 |
tp |
-3.965279640573456E-6 |
5.075609569625162E-8 |
1.737863873456841E-5 |
1.134114127927571E-5 |
-2.008397110782906E-5 |
-9.125831270530202E-7 |
node |
-2.588142069923042E-6 |
3.313395409323915E-8 |
1.134114127927571E-5 |
7.659061354570639E-6 |
-1.336786353006318E-5 |
-5.91948553947916E-7 |
peri |
4.583830851946088E-6 |
-5.868939827915579E-8 |
-2.008397110782906E-5 |
-1.336786353006318E-5 |
2.348136829682351E-5 |
1.051200309612167E-6 |
i |
2.082436719233576E-7 |
-2.665785054322924E-9 |
-9.125831270530202E-7 |
-5.91948553947916E-7 |
1.051200309612167E-6 |
4.798190190815005E-8 |
|
[ hide close-approach data ]
Close-Approach Data ...sorted by Date/Time (TDB)
|
Date/Time (TDB) |
Time Uncertainty (days_HH:MM) |
Body |
Nominal Distance (au) |
Minimum Distance (au) |
Maximum Distance (au) |
V-relative (km/s) |
V-infinity (km/s) |
JD (TDB) |
Time Uncertainty (minutes) |
Semi-major axis (km) |
Semi-minor axis (km) |
range-LOV angle (deg) |
N-sigma |
BP |
Orbit Ref. |
Reference |
Modified |
2018-Jun-21 20:49 |
< 00:01 |
Earth |
0.0167108259436966 |
0.0166415172328711 |
0.0167801323862149 |
9.01798623648905 |
9.00028794900358 |
2458291.367450843 |
0.0506682509256867 |
3442.39871728142 |
1.9093640378341 |
-0.0153046250721013 |
448.970942513972 |
T |
7 |
CATAB v2.0e-lin.ifort 2018-Jul-09 08:58:14 |
2018-Dec-11 17:21 |
|
|